Location: Adaghas
(31.2259°N, 9.0496°W)
Time: 04:06:46
(UTC+00:00)

H-2A R/B - Pass Details

Date: 18 September 2020
Orbit: 734 x 836 km, 98.2° (Epoch: 23 October)

Event Time Altitude Azimuth Distance (km) Brightness Sun altitude
Rises 19:10:14 0° 143° (SE) 3,149 4.8 -7.8°
Reaches altitude 10° 19:12:41 10° 133° (SE) 2,235 3.9 -8.3°
Maximum altitude 19:17:00 32° 71° (ENE) 1,267 2.7 -9.2°
Drops below altitude 10° 19:21:23 10° 10° (N) 2,279 4.4 -10.2°
Sets 19:23:54 0° 0° (N) 3,221 5.3 -10.7°
